When you browse on this site, cookies collect data to enhance your experience and personalize the content and advertising you see.
Visit our Privacy Policy to learn more. By continuing to use the site, you agree to this use of cookies and data.
  • Em Portugal
  • Lista de países
  • Para 7 dias
  • Temperatura da água
  • Mapa do tempo
  • Widgets de tempo
  • user-avatar
    Iniciar Sessão

    Previsão horária em Lipowe

    Hoje, 22 Janeiro, Quarta-feira

    Tempo Temperatura Precipitação Vento Pressão Humidade
    00:00 -2°C° 0 mm 2 m/s 730 mmHg 63%
    01:00 0°C° 0 mm 1 m/s 729 mmHg 63%
    02:00 -2°C° 0 mm 2 m/s 729 mmHg 64%
    03:00 -2°C° 0 mm 2 m/s 728 mmHg 64%
    04:00 -3°C° 0 mm 2 m/s 727 mmHg 65%
    05:00 -3°C° 0 mm 2 m/s 727 mmHg 65%
    06:00 -3°C° 0 mm 2 m/s 727 mmHg 65%
    07:00 -3°C° 0 mm 2 m/s 726 mmHg 64%
    08:00 -2°C° 0 mm 2 m/s 726 mmHg 61%
    09:00 -1°C° 0 mm 2 m/s 726 mmHg 57%
    10:00 +2°C° 0 mm 2 m/s 726 mmHg 54%
    11:00 +1°C° 0 mm 3 m/s 725 mmHg 54%
    12:00 +1°C° 0 mm 3 m/s 725 mmHg 55%
    13:00 +1°C° 0 mm 4 m/s 725 mmHg 56%
    14:00 0°C° 0 mm 4 m/s 724 mmHg 64%
    15:00 -1°C° 0 mm 4 m/s 724 mmHg 72%
    16:00 -2°C° 0 mm 5 m/s 723 mmHg 80%
    17:00 -2°C° 0.2 mm 5 m/s 724 mmHg 85%
    18:00 -2°C° 0.2 mm 4 m/s 724 mmHg 90%
    19:00 -2°C° 0.2 mm 4 m/s 725 mmHg 95%
    20:00 -2°C° 0.2 mm 4 m/s 725 mmHg 95%
    21:00 -2°C° 0.2 mm 4 m/s 725 mmHg 94%
    22:00 -2°C° 0.2 mm 4 m/s 726 mmHg 93%
    23:00 -1°C° 0.1 mm 3 m/s 726 mmHg 94%

    Amanhã, 23 Janeiro, Quinta-feira

    Tempo Temperatura Precipitação Vento Pressão Humidade
    00:00 -2°C° 0.1 mm 3 m/s 727 mmHg 94%
    01:00 -2°C° 0.1 mm 3 m/s 727 mmHg 95%
    02:00 -2°C° 0 mm 3 m/s 727 mmHg 95%
    03:00 -2°C° 0 mm 3 m/s 728 mmHg 94%
    04:00 -2°C° 0 mm 3 m/s 728 mmHg 93%
    05:00 -2°C° 0 mm 3 m/s 728 mmHg 91%
    06:00 -2°C° 0 mm 2 m/s 728 mmHg 90%
    07:00 -3°C° 0 mm 2 m/s 729 mmHg 88%
    08:00 -2°C° 0 mm 2 m/s 729 mmHg 84%
    09:00 -1°C° 0 mm 2 m/s 729 mmHg 79%
    10:00 -1°C° 0 mm 2 m/s 730 mmHg 75%
    11:00 +1°C° 0 mm 2 m/s 730 mmHg 71%
    12:00 +2°C° 0 mm 2 m/s 730 mmHg 67%
    13:00 +3°C° 0 mm 1 m/s 729 mmHg 64%
    14:00 +2°C° 0 mm 1 m/s 729 mmHg 68%
    15:00 +1°C° 0 mm 1 m/s 728 mmHg 73%
    16:00 -1°C° 0 mm 0 m/s 728 mmHg 78%
    17:00 0°C° 0 mm 1 m/s 728 mmHg 79%
    18:00 -1°C° 0 mm 1 m/s 728 mmHg 79%
    19:00 -1°C° 0 mm 1 m/s 728 mmHg 80%
    20:00 -1°C° 0 mm 1 m/s 728 mmHg 79%
    21:00 -1°C° 0 mm 1 m/s 727 mmHg 78%
    22:00 -2°C° 0 mm 1 m/s 727 mmHg 76%
    23:00 -2°C° 0 mm 1 m/s 727 mmHg 75%

    Depois de amanhã, 24 Janeiro, Sexta-feira

    Tempo Temperatura Precipitação Vento Pressão Humidade
    00:00 -2°C° 0 mm 1 m/s 727 mmHg 73%
    01:00 -2°C° 0 mm 1 m/s 727 mmHg 71%
    02:00 -2°C° 0 mm 1 m/s 726 mmHg 70%
    03:00 -2°C° 0 mm 1 m/s 726 mmHg 68%
    04:00 -2°C° 0 mm 1 m/s 725 mmHg 67%
    05:00 -2°C° 0 mm 1 m/s 725 mmHg 67%
    06:00 -2°C° 0 mm 1 m/s 725 mmHg 66%
    07:00 -2°C° 0 mm 1 m/s 725 mmHg 66%
    08:00 -1°C° 0 mm 1 m/s 725 mmHg 63%
    09:00 0°C° 0 mm 1 m/s 725 mmHg 60%
    10:00 +1°C° 0 mm 1 m/s 725 mmHg 57%
    11:00 +2°C° 0 mm 1 m/s 725 mmHg 57%
    12:00 +3°C° 0 mm 1 m/s 724 mmHg 56%
    13:00 +4°C° 0 mm 1 m/s 724 mmHg 56%
    14:00 +3°C° 0 mm 1 m/s 723 mmHg 62%
    15:00 +2°C° 0 mm 1 m/s 723 mmHg 67%
    16:00 0°C° 0 mm 1 m/s 722 mmHg 73%
    17:00 0°C° 0 mm 1 m/s 722 mmHg 74%
    18:00 -1°C° 0 mm 1 m/s 722 mmHg 75%
    19:00 -1°C° 0 mm 1 m/s 722 mmHg 76%
    20:00 -1°C° 0 mm 1 m/s 722 mmHg 76%
    21:00 -1°C° 0 mm 1 m/s 722 mmHg 76%
    22:00 -2°C° 0 mm 1 m/s 722 mmHg 75%
    23:00 -2°C° 0 mm 1 m/s 721 mmHg 75%

    25 Janeiro, Sábado

    Tempo Temperatura Precipitação Vento Pressão Humidade
    00:00 -2°C° 0 mm 1 m/s 721 mmHg 74%
    01:00 -2°C° 0 mm 1 m/s 721 mmHg 74%
    02:00 -2°C° 0 mm 1 m/s 721 mmHg 73%
    03:00 -2°C° 0 mm 1 m/s 721 mmHg 72%
    04:00 -2°C° 0 mm 1 m/s 721 mmHg 71%
    05:00 -2°C° 0 mm 1 m/s 721 mmHg 71%
    06:00 -2°C° 0 mm 1 m/s 721 mmHg 71%
    07:00 -2°C° 0 mm 1 m/s 721 mmHg 70%
    08:00 -1°C° 0 mm 1 m/s 721 mmHg 67%
    09:00 0°C° 0 mm 1 m/s 722 mmHg 63%
    10:00 +1°C° 0 mm 1 m/s 722 mmHg 59%
    11:00 +2°C° 0 mm 1 m/s 722 mmHg 58%
    12:00 +3°C° 0 mm 1 m/s 722 mmHg 56%
    13:00 +3°C° 0 mm 0 m/s 722 mmHg 55%
    14:00 +2°C° 0 mm 0 m/s 722 mmHg 60%
    15:00 +2°C° 0 mm 1 m/s 721 mmHg 66%
    16:00 +1°C° 0 mm 1 m/s 721 mmHg 72%
    17:00 0°C° 0 mm 1 m/s 721 mmHg 74%
    18:00 0°C° 0 mm 1 m/s 721 mmHg 76%
    19:00 -1°C° 0 mm 1 m/s 722 mmHg 78%
    20:00 -1°C° 0 mm 1 m/s 722 mmHg 78%
    21:00 -1°C° 0 mm 1 m/s 722 mmHg 79%
    22:00 -1°C° 0 mm 1 m/s 722 mmHg 79%
    23:00 -1°C° 0 mm 1 m/s 722 mmHg 79%

    26 Janeiro, Domingo

    Tempo Temperatura Precipitação Vento Pressão Humidade
    00:00 -1°C° 0 mm 1 m/s 721 mmHg 79%
    01:00 -2°C° 0 mm 1 m/s 721 mmHg 79%
    02:00 -2°C° 0 mm 1 m/s 721 mmHg 79%
    03:00 -2°C° 0 mm 1 m/s 721 mmHg 79%
    04:00 -2°C° 0 mm 1 m/s 721 mmHg 79%
    05:00 -2°C° 0 mm 1 m/s 721 mmHg 79%
    06:00 -1°C° 0 mm 1 m/s 721 mmHg 80%
    07:00 -1°C° 0 mm 1 m/s 721 mmHg 81%
    08:00 0°C° 0 mm 1 m/s 721 mmHg 79%
    09:00 +1°C° 0 mm 1 m/s 721 mmHg 77%
    10:00 +2°C° 0 mm 1 m/s 721 mmHg 75%
    11:00 +3°C° 0 mm 1 m/s 721 mmHg 74%
    12:00 +4°C° 0 mm 1 m/s 721 mmHg 73%
    13:00 +4°C° 0 mm 1 m/s 721 mmHg 72%
    14:00 +4°C° 0 mm 1 m/s 721 mmHg 77%
    15:00 +3°C° 0 mm 1 m/s 720 mmHg 81%
    16:00 +2°C° 0 mm 1 m/s 720 mmHg 86%
    17:00 +1°C° 0 mm 1 m/s 720 mmHg 87%
    18:00 +1°C° 0 mm 1 m/s 720 mmHg 88%
    19:00 +1°C° 0 mm 1 m/s 720 mmHg 89%
    20:00 +1°C° 0 mm 1 m/s 720 mmHg 89%
    21:00 +1°C° 0 mm 1 m/s 720 mmHg 89%
    22:00 +1°C° 0 mm 1 m/s 720 mmHg 89%
    23:00 -1°C° 0 mm 2 m/s 721 mmHg 89%

    27 Janeiro, Segunda-feira

    Tempo Temperatura Precipitação Vento Pressão Humidade
    00:00 -1°C° 0 mm 2 m/s 721 mmHg 89%
    01:00 +1°C° 0 mm 2 m/s 721 mmHg 89%
    02:00 +1°C° 0.2 mm 2 m/s 721 mmHg 91%
    03:00 +1°C° 0.2 mm 2 m/s 721 mmHg 93%
    04:00 +1°C° 0.2 mm 2 m/s 721 mmHg 95%
    05:00 +1°C° 0.2 mm 2 m/s 721 mmHg 95%
    06:00 +1°C° 0.2 mm 2 m/s 721 mmHg 96%
    07:00 +1°C° 0.2 mm 2 m/s 721 mmHg 96%
    08:00 +2°C° 0.2 mm 2 m/s 722 mmHg 96%
    09:00 +2°C° 0.2 mm 2 m/s 722 mmHg 95%
    10:00 +2°C° 0.2 mm 2 m/s 723 mmHg 95%
    11:00 +3°C° 0 mm 2 m/s 723 mmHg 90%
    12:00 +4°C° 0 mm 2 m/s 723 mmHg 86%
    13:00 +5°C° 0 mm 2 m/s 723 mmHg 81%
    14:00 +4°C° 0 mm 2 m/s 723 mmHg 83%
    15:00 +4°C° 0 mm 2 m/s 723 mmHg 86%
    16:00 +3°C° 0 mm 2 m/s 723 mmHg 88%
    17:00 +2°C° 0 mm 2 m/s 723 mmHg 88%
    18:00 +2°C° 0 mm 2 m/s 723 mmHg 87%
    19:00 +1°C° 0 mm 2 m/s 723 mmHg 87%
    20:00 +1°C° 0 mm 2 m/s 723 mmHg 87%
    21:00 +1°C° 0 mm 2 m/s 723 mmHg 87%
    22:00 +1°C° 0 mm 2 m/s 723 mmHg 87%
    23:00 +1°C° 0 mm 2 m/s 722 mmHg 87%
    Mostrar mais